Regional Weather Roundup
Issued by NWS

Home | Current Version | Previous Version | Graphics & Text | Print | Product List | Glossary Off
Versions: 1 2 3 4 5 6 7 8 9 10 11 12 13 14 15 16 17 18 19 20 21 22 23 24 25 26 27 28 29 30 31 32 33 34 35 36 37 38 39 40 41 42 43 44 45 46 47 48 49 50

400
ASUS43 KMKX 270300
RWRWI

WISCONSIN REGIONAL WEATHER ROUNDUP
NATIONAL WEATHER SERVICE MILWAUKEE/SULLIVAN WI
900 PM CST SUN FEB 26 2017

NOTE: "FAIR" INDICATES FEW OR NO CLOUDS BELOW 12,000 FEET WITH NO
SIGNIFICANT WEATHER AND/OR OBSTRUCTIONS TO VISIBILITY.

WIZ001-002-006>008-014>016-023>028-270400-
NORTHWEST WISCONSIN

CITY           SKY/WX    TMP DP  RH WIND       PRES   REMARKS
SUPERIOR ARPT  FAIR      10   4  77 CALM      29.93S
ASHLAND        FAIR      15   3  59 SW3       29.94R
HAYWARD        FAIR      16  10  77 CALM      29.92R
SIREN          FAIR      17   7  65 CALM      29.93R
CUMBERLAND     FAIR      23   9  54 CALM      29.91R
RICE LAKE      FAIR      23  12  64 CALM      29.94R
CHETEK         FAIR      21  10  62 CALM      29.92R
LADYSMITH      FAIR      22   9  56 N3        29.92R
EAU CLAIRE     NOT AVBL
MENOMONIE      FAIR      26  14  60 CALM      29.93R
NEW RICHMOND   CLOUDY    27  15  62 CALM      29.93R
OSCEOLA        CLOUDY    25  17  72 NE3       29.96R
$$

WIZ003>005-009-010-017-018-270400-
NORTH CENTRAL WISCONSIN

CITY           SKY/WX    TMP DP  RH WIND       PRES   REMARKS
MANITOWISH WTR FAIR      10   6  83 NW3       29.88R
ARBOR VITAE    FAIR      17  10  74 CALM        N/A
WOODRUFF       FAIR      17  10  74 CALM        N/A
RHINELANDER    FAIR      20  12  71 CALM      29.88R
EAGLE RIVER    FAIR      17   8  67 NW6       29.86R WCI   8
LAND O LAKES   FAIR       7   5  91 W3        29.88R
PHILLIPS       FAIR      14   6  69 CALM      29.88R
TOMAHAWK       FAIR      21  12  68 CALM      29.89R
MEDFORD        MOCLDY    26  17  68 NW5       29.88R WCI  21
MERRILL        NOT AVBL
$$

WIZ029-030-035-036-043>047-270400-
CENTRAL WISCONSIN

CITY           SKY/WX    TMP DP  RH WIND       PRES   REMARKS
WAUSAU         CLOUDY    29  23  78 W6        29.89R WCI  23
MOSINEE        NOT AVBL
MARSHFIELD     FAIR      27  19  72 W8        29.90R WCI  19
STEVENS POINT  FAIR      30  19  64 W12       29.90R WCI  20
WAUPACA        FAIR      33  19  56 W6        29.92R WCI  28
WAUTOMA        FAIR      31  22  69 W8        29.95R WCI  23
WISC RAPIDS    FAIR      30  22  72 W9        29.94R WCI  22
CAMP DOUGLAS   NOT AVBL
$$

WIZ011>013-019>022-031-037>040-048>050-270400-
NORTHEAST WISCONSIN

CITY           SKY/WX    TMP DP  RH WIND       PRES   REMARKS
ANTIGO         CLOUDY    26  20  77 NW8       29.87R WCI  18
SHAWANO        FAIR      32  19  58 W5        29.91R WCI  28
OCONTO         FAIR      31  20  64 W7        29.89R WCI  24
STURGEON BAY   MOCLDY    32  22  66 SW5       29.91R WCI  27
GREEN BAY      FAIR      34  22  61 W10       29.91R WCI  26
MANITOWOC      NOT AVBL
APPLETON       PTCLDY    32  21  64 W8        29.90R WCI  25
CLINTONVILLE   FAIR      32  19  59 W5        29.90R WCI  27
OSHKOSH        FAIR      34  22  61 W7        29.92R WCI  28
$$

WIZ032>034-041-042-053>061-270400-
SOUTHWEST WISCONSIN

CITY           SKY/WX    TMP DP  RH WIND       PRES   REMARKS
LA CROSSE      FAIR      31  23  72 SW8       29.99R WCI  23
SPARTA         FAIR      29  23  77 W5        29.97R WCI  24
VIROQUA        FAIR      28  23  82 CALM      29.95R
BOSCOBEL       FAIR      31  24  75 SW5       30.01R WCI  26
PRAIRIE DU CHI FAIR      31  25  77 W6        30.00R WCI  25
PLATTEVILLE    FAIR      32  25  75 W6        29.99R WCI  26
$$

WIZ056-057-062-063-064-067-068-270400-
SOUTH CENTRAL WISCONSIN

CITY           SKY/WX    TMP DP  RH WIND       PRES   REMARKS
REEDSBURG      FAIR      32  24  72 W6        29.95R WCI  26
BARABOO/DELLS  FAIR      32  22  67 W8        29.95R WCI  25
LONE ROCK      NOT AVBL
MINERAL POINT  FAIR      32  28  86 W3        29.97R
MADISON        FAIR      34  23  64 VRB5      29.97R WCI  30
MIDDLETON      FAIR      34  25  69 W5        29.97R WCI  30
WATERTOWN      FAIR      33  26  73 W5        29.95R WCI  29
MONROE         FAIR      34  25  69 W10       29.97R WCI  26
JANESVILLE     CLEAR     36  25  64 SW6       29.98R WCI  31
$$

WIZ051-052-058>065-066-070>072-270400-
SOUTHEAST WISCONSIN

CITY           SKY/WX    TMP DP  RH WIND       PRES   REMARKS
MILWAUKEE      FAIR      36  23  59 SW7       29.97R WCI  30
WAUKESHA       CLEAR     32  21  64 SW7       29.97R WCI  26
MILWAUKEE/TIMM CLEAR     36  21  55 SW6       29.97R WCI  31
RACINE         MOCLDY    37  25  61 SW9       29.99R WCI  30
KENOSHA        FAIR      37  27  67 SW8       29.99R WCI  31
FOND DU LAC    FAIR      33  22  63 W5        29.94R WCI  29
SHEBOYGAN      FAIR      32  24  72 SW8       29.93R WCI  25
WEST BEND      FAIR      34  23  64 W7        29.94R WCI  28
JUNEAU         FAIR      32  24  73 SW9       29.95R WCI  24
$$

LSZ147-162-270400-
LAKE SUPERIOR

STATION/POSITION TIME  TEMP    WIND        PRES    WAVE
                       AIR SEA DIR/SP/G            HT/PER
                 (UTC) (F)     (DEG/KT/KT) (MB)    (FT/S)
DEVILS ISLAND    0200   24     280/ 14/ 17 1013.8R
PORT WING        0240   19     200/  6/  8 1013.9R
SAXON HARBOR     0140   18     210/  4/  5 1012.9R
$$

LMZ867-665-643>646-270400-
LAKE MICHIGAN

STATION/POSITION TIME  TEMP    WIND        PRES    WAVE
                       AIR SEA DIR/SP/G            HT/PER
                 (UTC) (F)     (DEG/KT/KT) (MB)    (FT/S)
CHAMBERS ISLAND  0240   33     300/  2/  6 1011.9R
NORTHPORT PIER   0240   31     320/ 14/ 17 1012.5R
SISTER BAY       0150   31     290/  9/ 10   N/A
KEWAUNEE LAKESHO 0230   37     270/  5/  8 1012.1R
SHEBOYGAN LAKESH 0200   37     220/  8/  9 1013.6R
PORT WASHINGTON  0230   35     250/  3/  5 1014.9R
MILWAUKEE LAKESH 0230   39     190/  8/  8   N/A
KENOSHA   LAKESH 0200   42     250/  9/ 15 1014.9
$$

TC  - TEMPERATURE IN CELSIUS
VSB - VISIBILITY IN STATUTE MILES
WCI - WIND CHILL INDEX
HX  - HEAT INDEX





USA.gov is the U.S. government's official web portal to all federal, state and local government web resources and services.